Regional Weather Roundup
Issued by NWS

Home | Current Version | Previous Version | Text Only | Print | Product List | Glossary On
Versions: 1 2 3 4 5 6 7 8 9 10 11 12 13 14 15 16 17 18 19 20 21 22 23 24 25 26 27 28 29 30 31 32 33 34 35 36 37 38 39 40 41 42 43 44 45 46 47 48 49 50
317
ASUS44 KJAN 281203
RWRMS

MISSISSIPPI HOURLY WEATHER ROUNDUP
NATIONAL WEATHER SERVICE JACKSON MS
600 AM CST WED JAN 28 2015

NOTE: "FAIR: INDICATES FEW OR NO CLOUDS BELOW 12,000 FEET WITH NO
SIGNIFICANT WEATHER AND/OR OBSTRUCTIONS TO VISIBILITY.

MSZ001>002-007>008-010>013-018>021-025>028-034>036-281300-
NORTHWEST MISSISSIPPI

CITY           SKY/WX    TMP DP  RH WIND       PRES   REMARKS
CLARKSDALE     FAIR      36  32  87 E6        30.27R WCI  31
CLEVELAND      FAIR      38  35  89 E5        30.25R WCI  34
GREENWOOD      CLEAR     38  32  79 E5        30.25R WCI  34
6HR MIN TEMP:  33; 6HR MAX TEMP:  44;

GREENVILLE     CLEAR     37  33  85 CALM      30.24R
6HR MIN TEMP:  35; 6HR MAX TEMP:  46;

GRENADA        FAIR      34  32  93 E5        30.27R WCI  30
OLIVE BRANCH   CLEAR     32  32 100 E3        30.27R
OXFORD         FAIR      32  27  80 E3        30.27R
TUNICA         SUNNY     36  32  87 E6        30.27R WCI  31
$$

MSZ003>006-009-014>017-022>024-029>033-037>039-281300-
NORTHEAST MISSISSIPPI

CITY           SKY/WX    TMP DP  RH WIND       PRES   REMARKS
COLUMBUS AFB   CLEAR     29  28  94 NE2       30.28R
6HR MIN TEMP:  28; 6HR MAX TEMP:  40;

CORINTH        FAIR      28  25  86 E5        30.26S WCI  23
GOLDN TRIANGLE CLEAR     32  28  86 CALM      30.26R
STARKVILLE     FAIR      30  28  93 CALM      30.28R
TUPELO         CLEAR     31  27  85 CALM      30.27R
6HR MIN TEMP:  29; 6HR MAX TEMP:  38;

$$

MSZ040-058-281300-
CENTRAL MISSISSIPPI

CITY           SKY/WX    TMP DP  RH WIND       PRES   REMARKS
JACKSON INTL   CLEAR     37  31  78 CALM      30.25R
6HR MIN TEMP:  35; 6HR MAX TEMP:  48;

JACKSON HAWKNS CLEAR     42  33  70 E3        30.25R
6HR MIN TEMP:  41; 6HR MAX TEMP:  49;

MERIDIAN KEY   CLEAR     32  30  92 CALM      30.27R
6HR MIN TEMP:  32; 6HR MAX TEMP:  37;

MERIDIAN NAS   CLEAR     33  30  88 CALM      30.27R
6HR MIN TEMP:  31; 6HR MAX TEMP:  41;

RAYMOND        FAIR      34  30  86 MISG      30.25R
VICKSBURG      CLEAR     42  36  79 SE9       30.23R
6HR MIN TEMP:  36; 6HR MAX TEMP:  43;

$$

MSZ059>079-281300-
SOUTH MISSISSIPPI

CITY           SKY/WX    TMP DP  RH WIND       PRES   REMARKS
BROOKHAVEN       N/A     36  36 100 CALM      30.25R
HATTIESBURG    CLEAR     35  33  92 CALM      30.26R
6HR MIN TEMP:  35; 6HR MAX TEMP:  43;

MCCOMB         CLEAR     44  35  70 E5        30.23R
6HR MIN TEMP:  44; 6HR MAX TEMP:  52;

NATCHEZ        CLEAR     46  34  61 SE7       30.22R
6HR MIN TEMP:  41; 6HR MAX TEMP:  52;

PINE BELT      CLEAR     39  30  70 NE5       30.25R
6HR MIN TEMP:  37; 6HR MAX TEMP:  48;

$$

MSZ080>082-281300-
COASTAL MISSISSIPPI

CITY           SKY/WX    TMP DP  RH WIND       PRES   REMARKS
BILOXI         CLEAR     42  35  78 NE5       30.24R
6HR MIN TEMP:  42; 6HR MAX TEMP:  52;

PASCAGOULA     CLEAR     37  35  92 CALM      30.25R
6HR MIN TEMP:  37; 6HR MAX TEMP:  47;

GULFPORT       CLEAR     41  36  82 NE3       30.24R
6HR MIN TEMP:  40; 6HR MAX TEMP:  52;

$$



USA.gov is the U.S. government's official web portal to all federal, state and local government web resources and services.